Change the Weather History Date:

Thursday, July 4, 2013

  Actual Average Record
Temperature  
Mean Temperature 80 °F 78 °F  
Max Temperature 88 °F 89 °F 99 °F (1955)
Min Temperature 71 °F 68 °F 55 °F (1933)
Degree Days  
Heating Degree Days 0 0  
Month to date heating degree days 0 0  
Since 1 June heating degree days 0 3  
Since 1 July heating degree days 0 0  
Cooling Degree Days 15 13  
Month to date cooling degree days 49 52  
Year to date cooling degree days 565 526  
Since 1 June cooling degree days 396 363  
Growing Degree Days 30 (Base 50)    
Moisture  
Dew Point 71 °F    
Average Humidity 74    
Maximum Humidity 93    
Minimum Humidity 55    
Precipitation  
Precipitation 1.39 in 0.10 in 2.63 in (1989)
Month to date precipitation 1.91 0.41  
Year to date precipitation 27.97 21.11  
Snow  
Snow 0.00 in 0.00 in 0.00 in ()
Month to date snowfall 0.0 0.0  
Since 1 June snowfall 0.0 0.0  
Since 1 July snowfall 0.0 0.0  
Snow Depth 0.00 in    
Sea Level Pressure  
Sea Level Pressure 30.21 in    
Wind  
Wind Speed 11 mph (SSE)    
Max Wind Speed 26 mph    
Max Gust Speed 35 mph    
Visibility 8 miles    
Events Rain , Thunderstorm    
T = Trace of Precipitation, MM = Missing Value Source: NWS Daily Summary

Daily Weather History Graph

Daily Weather History Graph

Search for Another Location

Airport or City:

Trip Planner

Search our weather history database for the weather conditions in past years. The results will help you decide how hot, cold, wet, or windy it might be!

Date:

Astronomy

Jul. 04, 2013 Rise Set
Actual Time 6:14 AM EDT 8:42 PM EDT
Civil Twilight 5:44 AM EDT 9:11 PM EDT
Nautical Twilight 5:08 AM EDT 9:48 PM EDT
Astronomical Twilight 4:27 AM EDT 10:28 PM EDT
Moon 3:27 AM EDT (7/4) 5:47 PM EDT (7/4)
Length of Visible Light 15h 26m
Length of Day
14h 27m
Waning Crescent, 11% of the Moon is Illuminated
Jul 4
Waning Crescent
Jul 8
New
Jul 15
First Quarter
Jul 22
Full
Jul 29
Last Quarter

Hourly Weather History & Observations

Time (EDT) Temp. Heat Index Dew Point Humidity Pressure Visibility Wind Dir Wind Speed Gust Speed Precip Events Conditions
12:52 AM 73.9 °F - 72.0 °F 93% 30.22 in 10.0 mi SSE 8.1 mph - N/A   Overcast
1:52 AM 73.9 °F - 72.0 °F 93% 30.21 in 10.0 mi SSE 10.4 mph - N/A   Overcast
2:20 AM 73.4 °F - 71.6 °F 94% 30.23 in 10.0 mi SSE 10.4 mph - N/A   Overcast
2:52 AM 73.9 °F - 72.0 °F 93% 30.19 in 10.0 mi SSE 11.5 mph - N/A   Overcast
3:52 AM 73.0 °F - 72.0 °F 96% 30.20 in 10.0 mi SSE 10.4 mph - N/A   Overcast
4:52 AM 73.0 °F - 72.0 °F 96% 30.20 in 9.0 mi SSE 9.2 mph - 0.00 in   Overcast
5:40 AM 73.4 °F - 71.6 °F 94% 30.23 in 10.0 mi SE 9.2 mph - 0.00 in Rain Light Rain
5:52 AM 73.9 °F - 72.0 °F 93% 30.21 in 10.0 mi SSE 8.1 mph - 0.00 in   Overcast
6:00 AM 73.4 °F - 71.6 °F 94% 30.23 in 10.0 mi SSE 8.1 mph - N/A   Overcast
6:19 AM 73.4 °F - 71.6 °F 94% 30.24 in 2.0 mi SE 9.2 mph - 0.00 in Rain Light Rain
6:27 AM 73.4 °F - 71.6 °F 94% 30.24 in 2.0 mi SSE 11.5 mph - 0.02 in Rain Heavy Rain
6:52 AM 73.9 °F - 72.0 °F 93% 30.22 in 10.0 mi SSE 9.2 mph - 0.04 in   Overcast
7:33 AM 73.4 °F - 71.6 °F 94% 30.26 in 10.0 mi South 6.9 mph - N/A   Overcast
7:52 AM 73.0 °F - 71.1 °F 93% 30.24 in 4.0 mi Calm Calm - 0.00 in Rain Light Rain
8:30 AM 73.4 °F - 71.6 °F 94% 30.27 in 10.0 mi SSW 3.5 mph - 0.02 in   Overcast
8:52 AM 75.0 °F - 73.0 °F 94% 30.25 in 10.0 mi South 8.1 mph - 0.02 in   Overcast
9:52 AM 78.1 °F - 73.0 °F 84% 30.24 in 10.0 mi South 13.8 mph - N/A   Overcast
10:52 AM 79.0 °F - 72.0 °F 79% 30.23 in 10.0 mi South 10.4 mph - 0.00 in Rain Light Rain
11:20 AM 80.6 °F 85.4 °F 73.4 °F 79% 30.25 in 10.0 mi South 11.5 mph - 0.01 in   Overcast
11:52 AM 81.0 °F 85.2 °F 72.0 °F 74% 30.23 in 10.0 mi SSE 10.4 mph - 0.01 in   Overcast
11:59 AM 78.8 °F - 73.4 °F 83% 30.25 in 10.0 mi SSW 8.1 mph - 0.00 in Rain Light Rain
12:52 PM 82.9 °F 88.0 °F 72.0 °F 69% 30.22 in 10.0 mi SSE 11.5 mph - 0.00 in   Mostly Cloudy
1:52 PM 84.9 °F 89.4 °F 70.0 °F 61% 30.19 in 10.0 mi SE 13.8 mph - N/A   Mostly Cloudy
2:52 PM 88.0 °F 92.9 °F 70.0 °F 55% 30.16 in 10.0 mi SE 17.3 mph 23.0 mph N/A   Mostly Cloudy
3:52 PM 86.0 °F 89.4 °F 68.0 °F 55% 30.15 in 10.0 mi SSE 15.0 mph 21.9 mph N/A   Mostly Cloudy
4:07 PM 84.2 °F 88.4 °F 69.8 °F 62% 30.18 in 10.0 mi ESE 18.4 mph 24.2 mph N/A Thunderstorm Thunderstorm
4:33 PM 73.4 °F - 69.8 °F 88% 30.20 in 5.0 mi SSW 9.2 mph 34.5 mph 0.14 in Rain , Thunderstorm Heavy Thunderstorms and Rain
4:52 PM 75.0 °F - 72.0 °F 90% 30.16 in 7.0 mi South 6.9 mph 21.9 mph 0.33 in Rain Light Rain
5:52 PM 81.0 °F 85.8 °F 73.0 °F 77% 30.16 in 10.0 mi SSE 15.0 mph - 0.00 in   Mostly Cloudy
6:52 PM 81.0 °F 84.9 °F 71.1 °F 72% 30.17 in 10.0 mi South 15.0 mph - N/A   Mostly Cloudy
7:52 PM 79.0 °F - 71.1 °F 77% 30.19 in 10.0 mi SSE 10.4 mph - N/A   Overcast
8:52 PM 77.0 °F - 70.0 °F 79% 30.19 in 9.0 mi SW 10.4 mph - 0.00 in Rain Light Rain
9:01 PM 73.4 °F - 69.8 °F 88% 30.22 in 2.5 mi SSE 15.0 mph 29.9 mph 0.00 in Rain Heavy Rain
9:05 PM 71.6 °F - 69.8 °F 94% 30.22 in 2.0 mi SSE 16.1 mph 29.9 mph 0.20 in Rain Heavy Rain
9:16 PM 73.4 °F - 71.6 °F 94% 30.21 in 7.0 mi SSE 12.7 mph 32.2 mph 0.63 in Rain Light Rain
9:39 PM 73.4 °F - 71.6 °F 94% 30.24 in 4.0 mi SW 15.0 mph 21.9 mph 0.63 in Rain , Thunderstorm Thunderstorms and Rain
9:48 PM 71.6 °F - 69.8 °F 94% 30.23 in 2.5 mi SSW 4.6 mph 17.3 mph 0.90 in Rain , Thunderstorm Heavy Thunderstorms and Rain
9:52 PM 73.0 °F - 71.1 °F 93% 30.21 in 6.0 mi South 9.2 mph - 0.93 in Rain , Thunderstorm Light Thunderstorms and Rain
10:07 PM 73.4 °F - 71.6 °F 94% 30.24 in 10.0 mi SSE 9.2 mph - 0.00 in Rain Light Rain
10:52 PM 73.9 °F - 73.0 °F 97% 30.22 in 6.0 mi SSE 6.9 mph - 0.00 in   Mostly Cloudy
11:52 PM 73.9 °F - 72.0 °F 93% 30.22 in 10.0 mi SSE 11.5 mph - 0.06 in   Mostly Cloudy